Home   Weather   New York   Past weeks

Flag for USA Past Weather in New York, New York, USA — Yesterday and Last 2 Weeks

Now
65 °F

Partly sunny.


Feels Like: 65 °F
Forecast: 60 / 71 °F
Wind: 10 mph from East

Location: New York City - Central Park

Current Time: Sep 28, 2016 at 9:41:57 AM

Latest Report: Sep 28, 2016 at 8:51 AM


Visibility: 6 mi

Pressure: 30.08 "Hg

Humidity: 81%

Dew Point: 59 °F

Location of New YorkLocation

Past Weather in New York — Graph

°F

New York Temperature Yesterday

Maximum temperature yesterday: 74 °F (at 2:51 PM)
Minimum temperature yesterday: 64 °F (at 6:51 AM)
Average temperature yesterday: 68 °F

High & Low Weather Summary for the Past Weeks

 TemperatureHumidityPressure
High90 °F (Sep 14, 1:51 PM)97% (Sep 19, 5:51 AM)30.34 "Hg (Sep 19, 5:51 AM)
Low54 °F (Sep 25, 6:51 AM)27% (Sep 22, 1:51 PM)29.88 "Hg (Sep 27, 3:51 PM)
Average70 °F65%30.11 "Hg
* Reported Sep 13 7:51 AM — Sep 28 7:51 AM, New York, Weather by CustomWeather, © 2016

Note: Actual official high and low records may vary slightly from our data, if they occured in-between our weather recording intervals... More about our weather records

Advertising

New York Weather History for the Previous 24 Hours

Scroll right to see more
 ConditionsComfort  
Time TempWeatherWind HumidityBarometerVisibility
7:51 AM
Wed, Sep 28
63 °FPartly sunny.7 mph84%30.07 "Hg5 mi
6:51 AM61 °FSunny.3 mph83%30.05 "Hg8 mi
5:51 AM61 °FPassing clouds.3 mph87%30.03 "Hg8 mi
4:51 AM62 °FFog.3 mph90%30.02 "Hg6 mi
3:51 AM62 °FFog.3 mph93%30.01 "Hg4 mi
2:51 AM63 °FFog.3 mph90%30.01 "Hg5 mi
1:51 AM63 °FClear.No wind87%30.00 "Hg7 mi
12:51 AM65 °FClear.No wind81%29.98 "Hg8 mi
11:51 PM
Tue, Sep 27
65 °FClear.5 mph85%29.98 "Hg9 mi
10:51 PM67 °FClear.No wind81%29.96 "Hg8 mi
9:51 PM66 °FClear.No wind81%29.95 "Hg9 mi
8:51 PM66 °FClear.No wind84%29.94 "Hg8 mi
7:51 PM67 °FClear.5 mph81%29.93 "Hg10 mi
6:51 PM69 °FClear.N/A57%29.90 "Hg10 mi
5:51 PM71 °FSunny.6 mph47%29.88 "Hg10 mi
4:51 PM73 °FSunny.5 mph48%29.88 "Hg10 mi
3:51 PM72 °FSunny.3 mph55%29.88 "Hg10 mi
2:51 PM74 °FSunny.3 mph52%29.89 "Hg10 mi
1:51 PM72 °FSunny.3 mph57%29.90 "Hg10 mi
12:51 PM71 °FSunny.No wind66%29.91 "Hg10 mi
11:51 AM69 °FPassing clouds.No wind73%29.93 "Hg10 mi
10:51 AM67 °FSunny.6 mph79%29.95 "Hg9 mi
9:51 AM65 °FPassing clouds.6 mph85%29.94 "Hg8 mi
Weather by CustomWeather, © 2016

See weather overviewHow to use our weather pages